Presure
263 256 268 254 241 239 236 238 240 246 228 231 245 231 238 237 249 250 291 375 332 313 263 250 294 282 290 225 215 212 210 212 201 205 205 138 211 205
266 259 245 238 234 237 230 254 238 235 222 214 230 239 227 235 236 244 257 290 382 293 298 310 268 314 293 271 223 220 210 207 208 212 222 223 216 210
246 238 231 229 225 240 239 258 236 236 218 219 227 237 220 235 230 232 236 256 280 325 382 331 302 301 281 299 284 220 214 211 210 207 208 215 215 217
229 228 227 230 233 242 236 248 236 243 213 223 216 231 232 226 229 228 232 231 246 260 295 346 353 335 256 243 311 265 225 206 215 217 224 221 221 228
229 232 234 246 249 235 249 249 231 241 219 223 231 214 229 222 220 226 222 231 228 242 252 266 327 363 357 245 244 298 261 234 222 221 223 224 223 218
227 230 228 239 235 235 253 252 236 242 226 226 224 215 221 223 224 210 219 224 226 237 231 245 256 295 348 242 246 270 243 268 244 226 213 215 223 238
230 230 233 237 252 233 245 229 237 242 234 228 214 229 218 221 215 218 221 216 221 159 226 234 237 248 259 233 234 229 244 242 240 236 232 238 239 239
237 237 239 247 242 228 242 249 239 232 224 123 227 230 224 221 183 213 219 214 223 221 217 220 229 214 219 233 242 242 239 237 237 234 231 230 230 231
239 251 239 204 140 242 236 248 246 252 243 237 224 232 209 223 209 220 208 212 216 215 213 214 213 207 211 223 219 220 218 217 212 212 212 214 215 230
140 239 249 254 258 255 264 237 260 254 214 242 236 231 220 212 214 217 223 210 212 215 214 210 204 212 212 211 208 211 207 207 206 203 202 202 216 223
223 221 226 228 238 248 263 274 229 246 236 236 248 221 209 229 217 211 212 222 211 213 210 206 210 208 209 214 214 214 210 209 204 205 205 205 207 208
199 204 220 225 217 216 224 228 234 239 236 247 225 237 223 225 217 206 209 205 223 222 221 202 207 210 204 213 218 214 206 212 210 208 208 215 215 212
214 208 199 196 196 205 220 217 225 228 226 217 223 220 201 222 211 221 210 202 217 218 212 196 204 210 213 214 210 208 205 206 212 212 216 215 213 205
221 227 218 216 216 212 208 202 202 209 216 213 209 209 208 208 209 217 219 210 216 222 191 188 192 201 207 209 211 206 209 212 205 197 211 218 198 193
217 206 207 225 228 224 224 212 222 214 210 209 197 202 189 186 215 214 216 216 209 212 207 202 203 204 205 206 215 212 207 205 210 215 202 200 190 201
217 213 213 225 227 220 214 223 209 221 222 214 177 220 214 212 213 209 191 184 184 188 195 210 216 217 214 216 207 204 190 191 188 209 223 207 203 198
215 215 213 212 210 214 216 220 210 220 203 226 226 228 226 222 217 215 216 218 223 223 200 183 183 182 198 191 193 206 190 184 192 187 192 221 217 221
213 226 219 225 227 226 227 226 224 224 237 230 223 221 224 224 226 224 212 214 220 211 212 217 217 216 223 232 233 227 227 226 217 224 227 218 233 226
227 222 241 222 229 230 230 229 230 236 238 229 239 236 234 235 235 235 232 232 235 236 235 230 235 231 236 244 222 230 234 239 244 238 237 238 246 251
227 230 227 234 235 236 235 239 237 238 240 245 245 246 247 242 246 249 242 236 234 240 244 246 246 245 222 247 239 249 252 253 250 249 258 263 269 245
234 234 237 238 240 240 250 250 243 242 263 262 236 238 258 243 245 246 249 242 242 237 252 255 289 309 305 296 284 259 267 342 344 299 296 308 308 301
300 304 279 290 252 288 302 274 277 313 328 322 311 316 313 304 293 299 298 280 282 251 274 273 252 265 269 284 350 305 299 282 288 290 284 282 289 343
293 322 323 325 333 329 241 270 252 259 273 255 255 266 276 280 339 342 336 158 320 337 319 310 318 317 334 331 344 325 294 290 277 295 349 355 323 322
Wind_Speed
33 31 26 25 29 32 32 31 25 24 29 34 28 32 25 31 32 35 44 5 18 36 49 53 50 67 72 98 93 95 95 91 87 90 81 60 79 75
20 19 20 25 29 29 32 29 25 25 27 30 32 24 29 25 26 29 34 36 3 23 32 48 52 59 69 88 95 99 93 91 93 91 96 95 86 73
14 19 23 27 29 27 28 26 25 25 27 31 32 22 30 21 22 20 21 29 30 22 19 31 47 54 64 74 89 94 96 95 90 87 85 87 89 91
20 22 26 30 29 27 27 26 26 26 28 28 31 26 18 21 18 17 16 14 20 24 21 13 23 37 49 55 63 90 98 89 97 95 103 101 95 98
21 23 25 25 25 25 26 27 29 27 27 27 28 31 21 23 23 17 18 12 11 15 18 17 13 11 30 42 50 65 91 95 95 95 97 97 93 88
24 25 26 26 25 26 26 28 30 28 29 29 29 30 28 25 19 25 19 16 11 8 4 10 10 9 3 32 38 44 56 72 89 95 81 86 93 94
28 28 28 28 27 27 27 28 30 33 31 31 31 29 29 28 27 21 18 18 15 31 9 2 1 3 6 26 32 37 39 47 53 62 67 67 67 67
31 33 34 33 28 29 30 30 32 34 33 37 33 33 30 30 32 29 24 23 17 17 15 13 9 17 16 12 14 19 24 28 31 35 39 42 44 46
28 31 33 32 35 32 33 34 32 35 37 39 35 35 32 32 31 31 32 29 25 24 23 21 23 25 25 19 23 25 29 32 37 39 42 44 46 43
38 28 29 31 34 36 39 35 36 35 36 41 40 39 37 35 34 35 34 34 33 29 29 29 31 30 31 33 36 36 40 40 42 47 49 51 46 45
35 35 33 32 29 29 33 40 37 35 37 40 42 40 38 41 39 39 38 39 39 37 36 37 37 38 38 39 41 42 45 47 50 52 54 56 57 58
41 38 38 37 38 38 37 37 38 34 37 39 40 42 42 43 43 44 44 43 44 46 42 46 45 45 46 45 45 47 49 49 52 54 55 55 56 57
54 50 44 43 45 44 41 44 41 38 40 44 43 46 47 45 47 49 48 48 49 49 48 52 52 51 50 51 52 53 54 55 56 56 58 59 60 59
61 60 57 55 53 54 52 49 49 48 50 49 52 52 52 52 54 54 53 53 54 55 53 50 55 55 57 57 58 57 58 60 61 58 63 67 61 63
67 63 60 64 64 63 63 58 60 58 57 57 55 54 52 53 59 60 60 60 61 63 63 61 63 64 63 65 67 66 63 63 66 69 66 66 66 71
72 71 70 72 72 71 67 70 63 68 68 66 56 67 66 65 67 66 61 58 60 61 62 68 71 72 70 71 69 69 61 65 64 73 78 73 74 75
78 78 76 75 72 75 77 77 70 76 68 77 77 79 80 78 76 73 72 73 76 78 68 63 62 61 71 67 69 74 67 65 71 68 74 84 82 88
80 87 83 88 88 87 87 86 83 82 86 83 82 80 83 83 84 83 75 76 81 78 77 80 80 81 85 88 91 89 91 91 87 91 93 90 94 88
92 90 93 88 94 94 94 92 92 92 90 88 92 92 91 92 92 93 93 92 93 95 96 92 97 94 96 101 87 94 95 96 100 97 95 95 101 101
97 98 96 98 98 99 97 98 96 96 98 99 96 95 96 92 93 96 95 92 93 97 100 104 107 107 90 105 101 108 110 110 109 106 110 111 112 94
101 98 100 98 101 101 103 103 100 99 101 101 88 89 102 91 94 94 95 94 94 92 96 97 98 94 93 94 98 99 99 86 86 93 96 92 91 93
108 109 108 109 101 106 107 98 97 96 91 90 89 87 86 86 86 87 88 92 92 90 94 92 89 87 88 90 79 87 85 86 86 86 86 86 88 80
97 99 99 99 97 95 82 90 84 85 87 79 78 82 82 81 80 79 77 51 77 76 78 79 79 78 75 75 71 76 82 81 79 82 73 74 77 78
Wind_Direction
267 267 268 266 266 271 279 281 279 270 290 295 305 308 320 325 350 352 13 54 154 164 199 222 210 213 206 210 221 222 228 229 246 248 253 248 258 257
266 264 261 267 271 275 279 278 273 271 287 293 298 309 310 326 340 360 12 21 275 210 214 218 229 212 209 210 221 221 234 240 244 245 242 246 253 261
254 262 261 267 274 274 277 270 265 262 283 290 293 298 304 325 331 342 358 21 24 13 252 235 235 225 219 215 214 225 231 238 244 250 256 255 256 257
260 268 271 270 272 271 274 267 261 258 280 281 292 289 296 307 322 329 345 357 27 30 21 346 245 228 217 220 223 219 225 242 244 246 245 251 255 257
274 274 277 283 279 273 280 267 267 259 274 274 275 288 285 296 302 317 317 339 343 28 29 32 9 260 232 222 221 225 223 231 239 244 247 251 257 263
282 280 282 290 281 283 287 268 267 259 265 267 272 277 281 285 288 296 301 311 316 354 355 39 42 54 235 212 221 228 227 232 236 241 252 257 257 259
287 288 285 286 286 281 277 273 269 263 260 262 273 266 275 275 279 279 285 289 296 275 297 313 277 159 178 214 219 224 225 227 232 234 240 245 249 252
288 289 289 287 280 280 278 272 270 268 267 277 265 261 266 269 283 277 274 276 276 277 271 268 274 248 230 221 223 223 225 228 231 236 243 248 252 256
291 287 287 283 276 284 279 278 272 264 262 262 267 259 270 260 272 266 276 275 271 268 267 260 262 257 250 243 242 244 245 245 245 247 250 252 255 257
280 295 295 294 290 283 280 281 276 267 275 263 264 264 266 269 269 267 263 271 271 265 266 265 263 262 259 255 248 247 248 254 255 254 256 257 262 265
291 288 289 291 294 292 292 286 280 275 271 269 263 269 271 263 269 270 271 265 270 265 265 263 262 263 263 264 262 259 256 254 255 256 256 258 258 259
288 288 288 287 283 282 282 282 280 278 271 271 268 263 267 267 267 271 270 271 266 264 262 268 266 265 265 266 265 264 262 265 263 262 263 268 267 266
283 284 283 281 281 281 277 279 277 275 270 270 271 270 276 269 271 268 270 273 268 267 265 275 270 267 266 266 265 266 267 268 269 270 272 270 269 267
280 280 280 279 278 279 279 279 279 275 271 270 271 272 273 273 271 269 267 268 268 267 275 277 277 273 270 269 268 269 270 271 270 271 274 275 271 272
281 285 284 280 277 277 276 280 275 276 277 274 277 276 276 277 269 269 268 267 269 266 267 273 272 273 273 274 270 271 272 272 272 274 274 275 275 276
281 282 283 278 276 278 281 279 280 278 276 276 279 275 275 273 273 275 276 276 276 276 276 272 269 270 272 271 273 274 274 274 276 277 276 276 276 278
280 280 281 283 284 283 282 281 282 281 277 276 276 274 275 278 281 280 278 277 274 274 275 277 277 277 273 275 275 275 274 274 275 277 278 279 279 281
282 276 281 278 277 278 276 276 277 277 272 274 278 278 277 277 277 276 274 277 279 274 274 274 276 274 277 279 277 278 278 278 277 279 280 279 281 280
275 279 272 281 278 278 279 280 280 276 274 278 272 272 273 274 274 274 276 276 278 278 278 278 277 277 277 275 274 277 278 279 278 278 279 280 281 283
276 275 277 275 275 276 277 276 277 276 276 275 275 275 274 277 275 273 273 273 275 277 276 275 275 274 278 276 277 277 277 277 278 279 279 278 279 279
276 277 275 275 274 276 274 274 277 278 277 277 276 278 275 274 275 274 274 273 274 274 275 276 275 274 274 273 274 277 277 279 279 277 278 278 277 277
276 276 273 276 276 276 278 276 276 279 278 278 279 278 277 275 274 274 273 273 274 275 274 274 276 277 276 276 278 276 276 276 276 277 278 278 278 277
275 277 278 278 278 278 276 275 276 276 276 275 276 277 276 275 275 275 276 284 273 276 273 273 274 274 276 277 276 276 276 277 277 278 277 277 279 279